CZ-6A DEB, 54358

Orbit data source: Space-Track

CZ-6A DEB, 54358 is space debris in SSO originally from a launch on Fri, 11 Nov 2022 UTC launched from the Taiyaun Space Center, China (TSC). Debris objects in space refer to the collection of defunct objects orbiting the Earth. Examples of debris include non-operational satellites, rocket bodies, and fragments generated from explosions, collisions, or faulty payload assembly.

Loading next visibility...
Identifier
54358, 2022-151DD
Orbit
SSO
Country
Flag of CNCN / PRC
Related business
Manufacturer
SAST
Mission
Spacecraft
Bus & Motor
Unknown
Mass
Unknown
Launch date (UTC)
2022-11-11 (4 years ago)
Launch vehicle
Unknown
Launch site
Taiyaun Space Center, China (TSC)
Object type
Payload
Rocket body
Debris
Shape & HBR
Unknown shape, 0.1 m
Radar Cross Section
Medium (>0.1 m² and <1 m²)

Expand to show TLE details & history
Last TLE update: 15 hours ago

TLE from 15 hours ago
0 CZ-6A DEB
1 54358U 22151DD  26263.20304850  .00011299  00000-0  10585-2 0  9990
2 54358  98.4474 345.0766 0079035 181.5923 178.5055 14.91857302206129
Epoch: 2026-09-20T04:52Z
TLE epoch observation values (Epoch: 2026-09-20T04:52:23.390Z)
Latitude
0.00005°
Longitude
-87.12147°
Altitude
650.248 km
Speed
7.503 km/s
True Right ascension
23h 00m 18s
True Declination
0° 00' 00"
Sunlit
Object was in full shadow at epoch
Visualization orbit readout
Latitude
Unknown
Longitude
Unknown
Altitude
Unknown
Speed
Unknown
Apparent Right ascension
Unknown
Apparent Declination
Unknown
Sunlit
N/A
Visualization observer readout
Local Sidereal Time
12:54:47
Azimuth
Unknown
Elevation
Unknown
Doppler factor
Unknown
Orbital elements
Apogee altitude
644.261 km
Perigee altitude
534.128 km
Semi-major axis
6,967.332 km
Eccentricity
0.0079
Inclination
98.4474°
RAAN
345.0766°
Arg. of periapsis
181.5923°
True anomaly
178.52889°
Mean anomaly
178.5055°
Eccentric anomaly
178.51722°
Mean motion
3.73202 °/min
Orbital period
96.46 mins
BSTAR
0.0010585
Loading maneuver chart data...
Computing Atmospheric mass density...
Loading historical data...
Loading historical data...
Loading historical data...
Loading historical data...
Loading historical data...
Loading historical data...
Loading historical data...

Documentation

Showing up to 5 results
|